EDT,Max TemperatureF,Mean TemperatureF,Min TemperatureF,Max Dew PointF,MeanDew PointF,Min DewpointF,Max Humidity, Mean Humidity, Min Humidity, Max Sea Level PressureIn, Mean Sea Level PressureIn, Min Sea Level PressureIn, Max VisibilityMiles, Mean VisibilityMiles, Min VisibilityMiles, Max Wind SpeedMPH, Mean Wind SpeedMPH, Max Gust SpeedMPH,PrecipitationIn, CloudCover, Events, WindDirDegrees
2012-9-1,91,82,73,73,71,66,93,72,43,30.18,30.11,30.04,10,10,10,9,3,,0.00,0,,257
2012-9-2,88,79,71,74,72,70,94,83,59,30.07,30.01,29.94,10,10,9,14,4,,0.07,1,Rain-Thunderstorm,215
2012-9-3,82,76,71,74,71,69,100,90,74,30.01,29.97,29.93,10,9,2,18,4,33,0.60,4,Rain-Thunderstorm,155
2012-9-4,81,76,71,72,71,70,100,91,74,30.00,29.96,29.90,10,9,2,8,4,,0.18,7,Rain,183
2012-9-5,84,78,71,73,71,69,100,92,63,29.99,29.94,29.88,10,6,0,12,4,,0.28,6,Fog-Rain,199
2012-9-6,87,80,73,73,72,66,96,81,63,30.00,29.93,29.88,10,10,7,13,5,,0.00,5,,225
2012-9-7,88,79,70,72,70,67,93,77,57,29.97,29.91,29.84,10,10,10,9,4,,0.00,1,,77
2012-9-8,88,78,69,73,70,64,100,84,59,29.89,29.80,29.71,10,8,1,17,4,39,0.22,3,Rain-Thunderstorm,219
2012-9-9,81,72,64,62,57,51,81,62,42,30.02,29.92,29.83,10,10,10,12,5,16,0.00,3,,49
2012-9-10,82,68,57,61,56,53,93,68,39,30.14,30.09,30.01,10,10,10,7,2,,0.00,1,,79
2012-9-11,80,72,64,61,59,57,90,71,47,30.29,30.22,30.14,10,10,10,8,2,,0.00,5,,85
2012-9-12,81,72,64,61,59,56,87,68,45,30.35,30.28,30.24,10,10,10,12,3,,0.00,3,,86
2012-9-13,80,68,59,61,58,56,90,70,50,30.34,30.28,30.22,10,10,10,12,4,,0.00,3,,59
2012-9-14,82,73,64,63,59,55,87,66,41,30.26,30.21,30.16,10,10,10,8,3,,0.00,5,,32
2012-9-15,84,74,63,65,62,59,93,72,43,30.19,30.14,30.09,10,10,10,7,1,,0.00,2,,96
2012-9-16,82,74,66,69,65,63,93,79,52,30.12,30.08,30.03,10,10,8,8,1,,0.03,6,Rain,155
2012-9-17,81,75,69,72,69,66,97,87,64,30.08,30.00,29.85,10,8,3,14,4,17,0.20,7,Rain,102
2012-9-18,75,70,66,71,68,63,97,90,78,29.86,29.77,29.72,10,9,2,20,11,34,0.40,7,Rain,204
2012-9-19,78,68,60,66,60,54,100,78,54,30.09,29.98,29.88,10,10,9,13,3,,0.02,4,Rain,63
2012-9-20,78,68,59,62,59,56,96,76,54,30.16,30.10,30.05,10,10,9,7,3,,0.00,1,,44
2012-9-21,82,70,59,65,62,58,96,79,50,30.11,30.05,29.98,10,10,8,12,2,16,0.00,2,,240
2012-9-22,84,72,61,65,61,56,93,70,46,30.02,29.99,29.93,10,9,5,16,5,22,0.01,0,,253
2012-9-23,79,66,53,56,48,39,93,57,30,30.13,30.08,30.01,10,10,10,13,4,,0.00,0,,289
2012-9-24,73,62,50,50,44,41,86,57,35,30.22,30.17,30.12,10,10,10,17,5,24,0.00,0,,59
2012-9-25,79,64,51,60,54,48,92,73,46,30.24,30.20,30.17,10,10,10,10,1,,0.00,2,Rain,253
2012-9-26,81,68,55,60,56,53,94,72,39,30.24,30.19,30.14,10,10,9,10,1,,0.00,0,,245
2012-9-27,84,69,54,63,58,53,97,72,40,30.22,30.15,30.09,10,10,9,9,1,,0.01,0,Rain,269
2012-9-28,84,72,61,65,62,58,94,74,44,30.14,30.06,29.98,10,9,6,10,2,,0.00,0,,266
2012-9-29,77,72,64,68,65,62,96,85,69,30.00,29.93,29.85,10,10,5,9,2,,0.01,3,Rain,230
2012-9-30,73,68,62,64,61,57,100,83,59,29.92,29.88,29.83,10,9,4,14,4,18,0.13,5,Rain,76